Tracking 17842 objects as of 30-August-2016
HD Live streaming from Space Station
objects crossing your sky now

DELTA 1 DEB

Track DELTA 1 DEB now!
10-day predictions


NORAD ID: 15205
Int'l Code: 1984-088E
Perigee: 554.7 km
Apogee: 3,859.7 km
Inclination: 28.7 °
Period: 131.8 minutes
Semi major axis: 8578 km
RCS: 0.0578 m2 (small)
Launch date: August 16, 1984
Source: United States (US)
Launch site: AIR FORCE EASTERN TEST RANGE (AFETR)

Note: This is SATELLITE DEBRIS
Your satellite tracking list
Your tracking list is empty





NASA's NSSDC Master Catalog

Two Line Element Set (TLE):
1 15205U 84088E   16242.85588391  .00000184  00000-0  87473-4 0  9999
2 15205  28.7195 172.6630 1926402 137.3065 286.1609 10.92721009845955
Source of the keplerian elements: AFSPC

N2YO: 501